Location: Chuathbaluk
(61.5726°N, 159.2454°W)
Time: 18:26:00
(UTC+00:00)

Explorer 7 - Pass Details

Date: 26 November 2020
Orbit: 484 x 678 km, 50.3° (Epoch: 14 January)

Event Time Altitude Azimuth Distance (km) Brightness Sun altitude
Exits shadow 15:43:10 17° 182° (S) 1,445 8.9 -23.3°
Maximum altitude 15:43:35 17° 175° (S) 1,430 9.0 -23.3°
Drops below altitude 10° 15:46:15 10° 133° (SE) 1,793 10.1 -23.0°
Sets 15:49:00 0° 113° (ESE) 2,647 11.5 -22.7°
